Flag Weather past 2 weeks in Lucknow, Uttar Pradesh, India

Now
70 °F

Haze.


Feels Like: 70 °F
Forecast: 52 / 81 °F
Wind: 5 mph from Northwest

Location: Lucknow / Amausi

Current Time: Nov 26, 2014 at 6:45:56 PM

Latest Report: Nov 26, 2014 at 6:00 PM


Visibility: 2 mi

Pressure: 29.80 "Hg

Humidity: 50%

Dew point: 50 °F

Location of LucknowLocation

Historic Weather in Lucknow — Graph

°F

Lucknow temperature yesterday

Maximum temperature yesterday: 79 °F (at 2:30 PM)
Minimum temperature yesterday: 48 °F (at 6:00 AM)
Average temperature yesterday: 65 °F

Past Weeks' High & Low Weather Summary

 TemperatureHumidityPressure
High84 °F (Nov 12, 12:30 PM)94% (Nov 13, 4:00 AM)30.80 "Hg (Nov 13, 4:00 AM)
Low48 °F (Nov 25, 6:00 AM)24% (Nov 15, 2:30 PM)29.77 "Hg (Nov 26, 3:30 PM)
Average68 °F58%29.96 "Hg
* Reported Nov 11 4:30 PM — Nov 26 5:00 PM, Lucknow, Weather by CustomWeather, © 2014

Note: Actual official high and low records may vary slightly from our data, if they occured in-between our weather recording intervals... More about our weather records

Advertising

Lucknow weather history for previous 24 hours

 ConditionsComfort  
Time TempWeatherWind HumidityBarometerVisibility
5:00 PM
Nov 26
73 °FHaze.No wind44%29.80 "Hg2 mi
4:00 PM77 °FHaze.No wind30%29.80 "Hg2 mi
3:30 PM79 °FHaze.No wind28%29.77 "Hg2 mi
3:00 PM79 °FHaze.5 mph28%29.80 "Hg2 mi
2:30 PM79 °FHaze.5 mph28%29.80 "Hg2 mi
2:00 PM79 °FHaze.7 mph30%29.80 "Hg2 mi
1:30 PM79 °FHaze.7 mph34%29.83 "Hg2 mi
1:00 PM77 °FHaze.7 mph39%29.83 "Hg2 mi
12:30 PM75 °FHaze.8 mph41%29.86 "Hg2 mi
12:00 PM75 °FHaze.8 mph41%29.89 "Hg2 mi
11:30 AM73 °FHaze.8 mph38%29.89 "Hg2 mi
11:00 AM72 °FHaze.8 mph44%29.92 "Hg2 mi
10:30 AM68 °FHaze.8 mph49%29.92 "Hg2 mi
9:30 AM64 °FHaze.5 mph52%29.92 "Hg1 mi
9:00 AM63 °FHaze.5 mph56%29.92 "Hg1 mi
8:30 AM59 °FFog.2 mph63%29.92 "Hg1 mi
8:00 AM55 °FFog.2 mph77%29.92 "Hg1 mi
7:30 AM54 °FFog.2 mph82%29.89 "Hg1 mi
7:00 AM54 °FFog.2 mph82%29.89 "Hg1 mi
6:30 AM54 °FFog.2 mph82%29.86 "Hg1 mi
6:00 AM54 °FFog.2 mph82%29.86 "Hg1 mi
5:30 AM55 °FFog.2 mph77%29.86 "Hg1 mi
5:00 AM55 °FFog.2 mph77%29.86 "Hg1 mi
4:00 AM57 °FFog.2 mph72%29.83 "Hg1 mi
3:00 AM57 °FHaze.2 mph72%29.86 "Hg1 mi
2:00 AM59 °FFog.2 mph68%29.86 "Hg1 mi
1:00 AM59 °FHaze.2 mph68%29.89 "Hg1 mi
12:00 AM59 °FHaze.2 mph72%29.89 "Hg1 mi
11:00 PM
Nov 25
59 °FHaze.2 mph72%29.92 "Hg1 mi
10:00 PM61 °FHaze.2 mph68%29.92 "Hg1 mi
9:00 PM61 °FHaze.2 mph68%29.92 "Hg1 mi
8:30 PM63 °FHaze.2 mph73%29.92 "Hg1 mi
8:00 PM64 °FHaze.2 mph68%29.92 "Hg1 mi
7:30 PM68 °FHaze.No wind60%29.92 "Hg1 mi
7:00 PM68 °FHaze.No wind60%29.92 "Hg1 mi
6:30 PM70 °FHaze.No wind57%29.92 "Hg1 mi
6:00 PM70 °FHaze.No wind53%29.92 "Hg1 mi
Weather by CustomWeather, © 2014

See weather overviewHow to use our weather pages